Location: Agadir Mansour Mhndou
(31.2424°N, 8.7730°W)
Time: 19:29:05
(UTC+00:00)

Cosmos 371 Rocket - Pass Details

Date: 16 October 2021
Orbit: 684 x 699 km, 74.0° (Epoch: 07 December)

Event Time Altitude Azimuth Distance (km) Brightness Sun altitude
Rises 19:18:53 0° 183° (S) 3,041 6.7 -17.2°
Reaches altitude 10° 19:21:13 10° 178° (S) 2,131 5.8 -17.7°
Maximum altitude 19:25:52 52° 103° (ESE) 860 3.4 -18.7°
Enters shadow 19:28:56 21° 34° (NE) 1,551 4.8 -19.3°
